TimeMST,TemperatureF,Dew PointF,Humidity,Sea Level PressureIn,VisibilityMPH,Wind Direction,Wind SpeedMPH,Gust SpeedMPH,PrecipitationIn,Events,Conditions,WindDirDegrees,DateUTC
12:56 AM,39.0,28.0,65,29.73,10.0,South,3.5,16.1,N/A,,Clear,190,2013-03-03 07:56:00
1:56 AM,37.9,28.9,70,29.69,10.0,WSW,12.7,-,N/A,,Clear,240,2013-03-03 08:56:00
2:56 AM,37.0,28.9,73,29.68,10.0,West,16.1,-,N/A,,Clear,270,2013-03-03 09:56:00
3:56 AM,37.9,30.9,76,29.65,10.0,SW,18.4,28.8,N/A,,Clear,230,2013-03-03 10:56:00
4:56 AM,35.1,28.9,78,29.65,10.0,SSW,11.5,-,N/A,,Clear,210,2013-03-03 11:56:00
5:56 AM,37.0,28.0,70,29.63,10.0,SSW,8.1,-,N/A,,Clear,210,2013-03-03 12:56:00
6:56 AM,36.0,28.9,76,29.65,10.0,WSW,27.6,33.4,N/A,,Scattered Clouds,250,2013-03-03 13:56:00
7:56 AM,36.0,18.0,48,29.62,10.0,WSW,31.1,39.1,N/A,,Clear,250,2013-03-03 14:56:00
8:56 AM,37.0,10.9,34,29.60,10.0,WSW,39.1,57.5,N/A,,Clear,250,2013-03-03 15:56:00
9:56 AM,37.9,12.0,35,29.63,10.0,West,40.3,49.5,N/A,,Clear,260,2013-03-03 16:56:00
10:56 AM,39.0,12.9,34,29.62,10.0,WSW,40.3,50.6,N/A,,Clear,250,2013-03-03 17:56:00
11:56 AM,37.9,15.1,39,29.62,10.0,WSW,33.4,46.0,N/A,,Scattered Clouds,250,2013-03-03 18:56:00
12:56 PM,36.0,17.1,46,29.68,10.0,WNW,28.8,44.9,N/A,,Mostly Cloudy,300,2013-03-03 19:56:00
1:02 PM,28.4,21.2,74,29.64,1.8,NNW,27.6,40.3,0.00,Snow,Light Snow,330,2013-03-03 20:02:00
1:12 PM,28.4,24.8,86,29.64,0.8,NNW,27.6,36.8,0.00,Snow,Light Snow,330,2013-03-03 20:12:00
1:26 PM,28.4,23.0,80,29.65,1.2,NW,26.5,35.7,0.00,Snow,Light Snow,320,2013-03-03 20:26:00
1:44 PM,26.6,21.2,80,29.66,2.5,NNW,39.1,44.9,0.00,Snow,Light Snow,330,2013-03-03 20:44:00
1:51 PM,26.6,21.2,80,29.67,7.0,NW,27.6,44.9,0.00,Snow,Light Snow,320,2013-03-03 20:51:00
1:56 PM,27.0,21.9,81,29.74,4.0,NW,27.6,39.1,0.00,Snow,Light Snow,310,2013-03-03 20:56:00
2:05 PM,26.6,21.2,80,29.67,2.0,NW,23.0,40.3,0.00,Snow,Light Snow,310,2013-03-03 21:05:00
2:15 PM,26.6,21.2,80,29.67,3.0,NW,33.4,39.1,0.00,Snow,Light Snow,310,2013-03-03 21:15:00
2:56 PM,28.0,21.9,78,29.76,5.0,NW,29.9,47.2,0.00,Snow,Light Snow,310,2013-03-03 21:56:00
3:05 PM,26.6,21.2,80,29.69,2.5,NW,34.5,49.5,0.00,Snow,Light Snow,310,2013-03-03 22:05:00
3:14 PM,28.4,21.2,74,29.70,7.0,NW,36.8,50.6,0.00,Snow,Light Snow,310,2013-03-03 22:14:00
3:30 PM,26.6,21.2,80,29.69,1.8,NW,42.6,56.4,0.00,Snow,Light Snow,310,2013-03-03 22:30:00
3:42 PM,26.6,21.2,80,29.70,3.0,NW,41.4,54.1,0.00,Snow,Light Snow,310,2013-03-03 22:42:00
3:56 PM,26.1,21.0,81,29.79,4.0,NW,44.9,57.5,0.00,Snow,Light Snow,310,2013-03-03 22:56:00
4:08 PM,26.6,21.2,80,29.71,2.5,NW,42.6,62.1,0.00,Snow,Light Snow,310,2013-03-03 23:08:00
4:20 PM,24.8,21.2,86,29.72,1.8,NW,47.2,58.7,0.00,Snow,Light Snow,310,2013-03-03 23:20:00
4:43 PM,24.8,21.2,86,29.73,0.8,NW,43.7,56.4,0.00,Snow,Light Snow,320,2013-03-03 23:43:00
4:56 PM,24.1,19.9,84,29.84,0.5,NW,48.3,57.5,0.00,Fog-Snow,Light Snow,320,2013-03-03 23:56:00
5:22 PM,24.8,19.4,80,29.79,0.2,NNW,46.0,55.2,0.00,Fog-Snow,Snow,330,2013-03-04 00:22:00
5:43 PM,23.0,21.2,93,29.82,0.2,NNW,35.7,50.6,N/A,Fog-Snow,Snow,330,2013-03-04 00:43:00
5:56 PM,23.0,21.0,92,29.93,0.2,NNW,38.0,51.8,0.00,Fog-Snow,Snow,330,2013-03-04 00:56:00
6:14 PM,23.0,19.4,86,29.85,0.5,NNW,40.3,50.6,0.01,Fog-Snow,Snow,330,2013-03-04 01:14:00
6:46 PM,23.0,19.4,86,29.89,0.8,NNW,40.3,52.9,0.01,Snow,Light Snow,330,2013-03-04 01:46:00
6:48 PM,23.0,19.4,86,29.89,1.0,NNW,41.4,52.9,0.01,Snow,Light Snow,330,2013-03-04 01:48:00
6:56 PM,23.0,19.0,85,29.99,1.2,NNW,40.3,50.6,0.01,Snow,Light Snow,330,2013-03-04 01:56:00
7:29 PM,21.2,19.4,93,29.93,2.5,NNW,33.4,46.0,0.00,Snow,Light Snow,340,2013-03-04 02:29:00
7:33 PM,21.2,19.4,93,29.93,3.0,NNW,32.2,42.6,0.00,Snow,Light Snow,340,2013-03-04 02:33:00
7:56 PM,21.9,19.0,89,30.04,4.0,NNW,33.4,42.6,0.00,Snow,Light Snow,330,2013-03-04 02:56:00
8:21 PM,21.2,19.4,93,29.97,1.8,NNW,31.1,40.3,0.00,Snow,Light Snow,340,2013-03-04 03:21:00
8:34 PM,21.2,19.4,93,29.98,1.2,North,32.2,41.4,0.00,Snow,Light Snow,350,2013-03-04 03:34:00
8:56 PM,21.9,18.0,85,30.10,1.8,North,29.9,36.8,0.00,Snow,Light Snow,350,2013-03-04 03:56:00
9:08 PM,21.2,17.6,86,30.01,2.0,North,26.5,38.0,0.00,Snow,Light Snow,350,2013-03-04 04:08:00
9:30 PM,21.2,17.6,86,30.02,1.8,North,16.1,-,0.00,Snow,Light Snow,350,2013-03-04 04:30:00
9:56 PM,19.9,17.1,89,30.15,1.5,North,20.7,35.7,0.00,Snow,Light Snow,360,2013-03-04 04:56:00
10:11 PM,21.2,17.6,86,30.05,3.0,North,19.6,-,0.00,Snow,Light Snow,360,2013-03-04 05:11:00
10:24 PM,21.2,17.6,86,30.05,6.0,North,23.0,29.9,0.00,Snow,Light Snow,350,2013-03-04 05:24:00
10:56 PM,21.0,19.0,92,30.16,3.0,NNW,16.1,-,0.00,Snow,Light Snow,340,2013-03-04 05:56:00
11:05 PM,21.2,19.4,93,30.06,2.0,NNW,29.9,34.5,0.00,Snow,Light Snow,340,2013-03-04 06:05:00
11:21 PM,21.2,17.6,86,30.07,4.0,North,24.2,33.4,0.00,Snow,Light Snow,350,2013-03-04 06:21:00
11:37 PM,19.4,17.6,93,30.08,2.0,North,21.9,32.2,0.00,Snow,Light Snow,360,2013-03-04 06:37:00
11:43 PM,19.4,17.6,93,30.08,1.5,North,25.3,31.1,0.00,Snow,Light Snow,10,2013-03-04 06:43:00
11:56 PM,19.9,16.0,85,30.19,2.5,North,26.5,33.4,0.00,Snow,Light Snow,360,2013-03-04 06:56:00
11:59 PM,19.4,15.8,86,30.09,3.0,North,23.0,33.4,0.00,Snow,Light Snow,360,2013-03-04 06:59:00